Regional Weather Roundup
Issued by NWS Kansas City/Pleasant Hill, MO

Home | Current Version | Previous Version | Text Only | Print | Product List | Glossary On
Versions: 1 2 3 4 5 6 7 8 9 10 11 12 13 14 15 16 17 18 19 20 21 22 23 24 25 26 27 28 29 30 31 32 33 34 35 36 37 38 39 40 41 42 43 44 45 46 47 48 49 50
000
ASUS43 KEAX 081910
RWREAX

WEATHER ROUNDUP FOR EASTERN KANSAS AND NORTHWEST MISSOURI
NATIONAL WEATHER SERVICE KANSAS CITY/PLEASANT HILL MO
100 PM CST MON FEB 08 2016

KSZ040-057-103>105-MOZ028-029-037-043-082000-
...KANSAS CITY METROPOLITAN AREA...

CITY           SKY/WX    TMP DP  RH WIND       PRES   REMARKS
K.C. INTL      FLURRIES  31  18  58 NW22G31   30.05S WCI  18
K.C. DOWNTOWN  CLOUDY    32  19  58 NW16G28   30.06F WCI  21
LEES SUMMIT    CLOUDY    31  19  61 N25G35    30.05F WCI  17
OLATHE - IXD   CLOUDY    32  16  51 NW23G39   30.07F WCI  19
OLATHE - OJC   CLOUDY    31  17  56 NW22G31   30.06F WCI  18
LAWRENCE       CLOUDY    34  16  47 NW29G44   30.11S WCI  20

$$

MOZ001>008-011>017-020>025-030>033-038>040-044>046-053-054-082000-
...NORTHERN AND CENTRAL MISSOURI...

CITY           SKY/WX    TMP DP  RH WIND       PRES   REMARKS
ST. JOSEPH     CLOUDY    30  16  56 NW24G43   30.08S WCI  16
MOSBY          CLOUDY    30  19  64 NW21G28   30.06S WCI  17
WARRENSBURG    CLOUDY    32  19  59 NW21G31   30.03F WCI  20
WHITEMAN AFB   FLURRIES  29  21  70 NW26G32   30.00F WCI  14
CLINTON          N/A     34  23  64 NW22G31   30.04F WCI  22
SEDALIA        CLOUDY    30  18  60 NW23G39   30.01S WCI  17
WARSAW         NOT AVBL
CHILLICOTHE      N/A     26  13  57 NW16G33   30.01F WCI  14
KIRKSVILLE     CLOUDY    22   9  57 NW22G32   29.93F WCI   6

$$

MOZ041-047>049-056>058-063>065-088>090-097-082000-
...EASTERN AND SOUTHERN MISSOURI...

CITY           SKY/WX    TMP DP  RH WIND       PRES   REMARKS
ST. LOUIS INTL FLURRIES  28  12  51 W26G32    29.87F WCI  13
SPIRIT OF STL  CLOUDY    28  13  53 NW17G24   29.89F WCI  16
COLUMBIA       CLOUDY    27  13  55 NW20G33   29.93F WCI  13
JEFFERSON CITY CLOUDY    28  14  55 NW25G37   29.97S WCI  13
ROLLA          CLOUDY    26  16  65 W16G31    29.90S WCI  14
OSAGE BEACH    CLOUDY    30  12  47 NW12G32   29.98S WCI  21
SPRINGFIELD    CLOUDY    33  16  49 NW24G35   30.00F WCI  20
BRANSON        FLURRIES  34  18  51 NW29G40   30.01S WCI  20
JOPLIN         CLOUDY    35  22  58 NW23G38   30.10F WCI  23
WEST PLAINS    CLOUDY    34  15  46 NW16G32   29.94R WCI  24

$$

IAZ060-094-KSZ022-034>040-054-083-096-NEZ052-066-093-082000-
...KANSAS...SOUTHEAST NEBRASKA AND IOWA...

CITY           SKY/WX    TMP DP  RH WIND       PRES   REMARKS
TOPEKA         CLOUDY    35  16  45 NW24G35   30.13F WCI  23
MANHATTAN      PTSUNNY   38  18  44 NW17G28   30.19F WCI  28
EMPORIA        PTSUNNY   39  15  37 NW33G47   30.14F WCI  27
CHANUTE        CLOUDY    41  18  39 NW22G35   30.13F WCI  31
WICHITA        MOSUNNY   44  13  28 NW29G44   30.23F WCI  34
OMAHA          CLOUDY    27  17  66 N23G36    30.09F WCI  12
LINCOLN        MOSUNNY   32  19  58 NW22G37   30.14F WCI  19
FALLS CITY     CLOUDY    33  16  49 NW33G52   30.08F WCI  18
LAMONI         FLURRIES  23  12  62 NW29G40   29.98F WCI   6
DES MOINES     CLOUDY    19   8  62 NW24G39   29.98R BLWGSNOWWCI   2

$$




USA.gov is the U.S. government's official web portal to all federal, state and local government web resources and services.